�N����,����,�~����,�C��,���x,�C��,����,���ϕ���,�ő�u�ԕ���,�ő厞����,���˗�,�I�_���x,�n�����x,�ő啗���N��,DTYPE
"22/02/23","00:10",0.0,0.4,76.1,1019.2,285.6,2.6,5.2,316.4,0.00,-3.3,4.9,"00:05:44",1
"22/02/23","00:20",0.0,0.4,76.3,1019.2,292.6,3.0,6.8,334.5,0.00,-3.2,4.7,"00:10:56",1
"22/02/23","00:30",0.0,0.4,76.7,1019.7,301.8,3.4,6.3,328.5,0.00,-3.2,4.8,"00:25:26",1
"22/02/23","00:40",0.0,0.4,77.0,1019.7,302.9,3.1,4.9,343.3,0.00,-3.1,4.7,"00:32:48",1
"22/02/23","00:50",0.0,0.2,77.5,1019.4,286.7,2.2,4.5,311.8,0.00,-3.2,4.6,"00:49:04",1
"22/02/23","01:00",0.0,0.2,77.9,1019.7,302.6,2.2,4.8,333.4,0.00,-3.2,4.8,"00:50:32",1
"22/02/23","01:10",0.0,0.1,78.3,1019.9,295.3,2.1,3.2,308.2,0.00,-3.2,4.4,"01:07:28",1
"22/02/23","01:20",0.0,0.2,78.8,1019.9,287.7,2.2,5.0,320.6,0.00,-3.0,4.6,"01:18:48",1
"22/02/23","01:30",0.0,0.3,79.2,1020.4,308.4,3.2,6.0,335.9,0.00,-2.8,4.5,"01:28:08",1
"22/02/23","01:40",0.0,0.4,79.5,1020.4,300.5,3.2,4.8,301.1,0.00,-2.7,4.6,"01:33:44",1
"22/02/23","01:50",0.0,0.2,79.8,1020.4,310.1,2.6,4.5,325.6,0.00,-2.8,4.7,"01:42:08",1
"22/02/23","02:00",0.0,0.3,80.0,1020.4,310.1,3.4,5.8,315.2,0.00,-2.7,4.8,"01:52:06",1
"22/02/23","02:10",0.0,0.3,80.2,1020.1,299.4,2.8,5.4,336.2,0.00,-2.7,4.3,"02:05:48",1
"22/02/23","02:20",0.0,0.2,80.5,1020.1,298.5,2.8,5.0,321.4,0.00,-2.7,4.5,"02:12:56",1
"22/02/23","02:30",0.0,0.3,80.5,1020.4,296.2,3.6,7.2,333.4,0.00,-2.6,4.5,"02:22:30",1
"22/02/23","02:40",0.0,0.1,80.5,1019.9,285.6,2.3,4.1,315.9,0.00,-2.8,4.5,"02:33:04",1
"22/02/23","02:50",0.0,0.2,80.7,1019.9,306.0,3.5,5.1,338.6,0.00,-2.7,4.3,"02:44:00",1
"22/02/23","03:00",0.0,0.2,80.6,1020.4,312.6,3.9,6.2,334.4,0.00,-2.7,4.4,"02:58:24",1
"22/02/23","03:10",0.0,0.2,80.4,1019.9,299.5,3.2,5.0,324.7,0.00,-2.7,4.3,"03:07:22",1
"22/02/23","03:20",0.0,0.3,80.3,1020.1,300.8,3.9,7.9,337.4,0.00,-2.6,4.4,"03:15:04",1
"22/02/23","03:30",0.0,0.1,80.1,1019.7,287.8,2.7,4.1,314.8,0.00,-2.9,4.4,"03:27:12",1
"22/02/23","03:40",0.0,0.1,80.2,1019.9,274.6,2.5,4.9,252.5,0.00,-2.9,4.4,"03:31:44",1
"22/02/23","03:50",0.0,0.0,80.2,1019.9,281.1,2.5,4.2,258.6,0.00,-3.0,4.3,"03:46:40",1
"22/02/23","04:00",0.0,0.0,80.2,1020.1,278.4,2.1,3.3,244.9,0.00,-3.0,4.2,"03:59:14",1
"22/02/23","04:10",0.0,-0.3,80.1,1019.9,294.8,1.6,3.3,325.4,0.00,-3.3,4.2,"04:03:52",1
"22/02/23","04:20",0.0,-0.9,80.4,1019.9,335.2,1.0,2.1,332.3,0.00,-3.8,4.3,"04:12:08",1
"22/02/23","04:30",0.0,-1.3,81.0,1019.4,286.3,0.8,2.1,318.2,0.00,-4.1,4.3,"04:26:24",1
"22/02/23","04:40",0.0,-1.0,81.6,1019.4,298.2,1.0,2.8,346.2,0.00,-3.7,4.1,"04:38:16",1
"22/02/23","04:50",0.0,-1.1,81.8,1019.7,323.3,1.6,2.9,285.6,0.00,-3.8,4.2,"04:43:36",1
"22/02/23","05:00",0.0,-1.5,82.2,1019.4,306.9,0.7,2.0,340.2,0.00,-4.1,4.1,"04:51:52",1
"22/02/23","05:10",0.0,-1.9,82.6,1019.4,303.0,0.6,1.6,309.7,0.00,-4.4,3.9,"05:03:04",1
"22/02/23","05:20",0.0,-2.3,83.1,1019.2,310.7,1.7,2.6,322.9,0.00,-4.7,4.2,"05:12:00",1
"22/02/23","05:30",0.0,-2.4,83.8,1019.4,320.0,2.3,3.1,322.8,0.00,-4.7,4.3,"05:26:16",1
"22/02/23","05:40",0.0,-2.5,84.5,1019.0,324.5,2.2,2.8,323.6,0.00,-4.7,3.9,"05:36:40",1
"22/02/23","05:50",0.0,-2.5,85.2,1018.7,319.6,2.1,2.8,332.6,0.00,-4.6,4.1,"05:46:48",1
"22/02/23","06:00",0.0,-2.5,86.1,1019.0,323.5,2.2,3.1,330.1,0.00,-4.5,4.0,"05:58:48",1
"22/02/23","06:10",0.0,-2.5,86.7,1019.0,321.7,2.1,2.6,318.2,0.00,-4.4,4.0,"06:03:12",1
"22/02/23","06:20",0.0,-2.3,87.5,1019.0,336.2,2.1,3.6,335.7,0.00,-4.0,4.0,"06:13:28",1
"22/02/23","06:30",0.0,-2.2,88.0,1019.2,341.8,1.6,2.2,334.7,0.00,-3.9,3.8,"06:25:28",1
"22/02/23","06:40",0.0,-2.2,88.3,1019.4,328.7,1.6,2.6,334.1,0.00,-3.8,3.9,"06:35:52",1
"22/02/23","06:50",0.0,-2.2,88.5,1019.4,301.8,1.2,2.6,337.0,0.00,-3.8,3.9,"06:41:04",1
"22/02/23","07:00",0.0,-2.4,88.9,1019.2,339.3,0.1,0.5,337.5,0.00,-3.9,4.0,"06:53:12",1
"22/02/23","07:10",0.0,-2.3,89.2,1019.2,357.2,0.3,1.6,316.3,0.00,-3.8,4.0,"07:09:36",1
"22/02/23","07:20",0.0,-2.0,89.4,1019.2,334.7,1.0,2.0,325.0,0.00,-3.5,3.8,"07:16:16",1
"22/02/23","07:30",0.0,-1.9,89.5,1019.4,305.2,0.6,1.2,324.7,0.00,-3.4,3.8,"07:20:56",1
"22/02/23","07:40",0.0,-2.0,89.6,1019.4,282.0,0.8,1.7,270.5,0.00,-3.4,3.8,"07:33:12",1
"22/02/23","07:50",0.0,-1.9,89.9,1019.7,314.3,1.0,2.1,310.3,0.01,-3.3,3.9,"07:44:40",1
"22/02/23","08:00",0.0,-0.9,90.1,1019.7,282.8,0.6,1.6,303.7,0.03,-2.3,3.6,"07:50:02",1
"22/02/23","08:10",0.0,-0.5,89.7,1019.9,265.9,1.7,3.1,314.6,0.05,-1.9,3.9,"08:05:12",1
"22/02/23","08:20",0.0,0.2,89.4,1020.1,237.1,1.0,2.5,306.9,0.06,-1.3,3.7,"08:19:30",1
"22/02/23","08:30",0.0,0.7,88.4,1020.4,287.4,1.6,3.9,316.2,0.10,-1.0,3.7,"08:28:24",1
"22/02/23","08:40",0.0,0.9,86.3,1020.4,293.1,2.2,4.4,316.0,0.09,-1.1,3.5,"08:39:44",1
"22/02/23","08:50",0.0,1.3,84.2,1020.8,282.5,2.0,4.3,301.9,0.12,-1.0,3.8,"08:40:48",1
"22/02/23","09:00",0.0,1.3,81.2,1021.1,299.1,2.7,4.8,309.5,0.11,-1.5,3.5,"08:54:32",1
"22/02/23","09:10",0.0,1.8,78.2,1021.1,294.3,2.7,4.7,321.7,0.18,-1.5,3.7,"09:04:56",1
"22/02/23","09:20",0.0,1.9,75.1,1021.1,302.2,3.4,7.7,333.7,0.14,-2.0,3.7,"09:19:28",1
"22/02/23","09:30",0.0,1.6,73.2,1021.1,315.8,4.6,6.5,322.2,0.09,-2.6,3.9,"09:24:40",1
"22/02/23","09:40",0.0,1.6,72.6,1020.8,318.7,4.4,6.6,343.4,0.08,-2.7,3.8,"09:30:56",1
"22/02/23","09:50",0.0,2.2,72.4,1021.1,321.6,4.1,6.5,336.2,0.19,-2.2,3.7,"09:48:08",1
"22/02/23","10:00",0.0,2.6,70.9,1020.8,323.9,5.1,8.8,340.1,0.19,-2.1,3.8,"09:59:44",1
"22/02/23","10:10",0.0,3.3,69.3,1021.8,310.8,4.2,6.4,343.9,0.33,-1.7,3.8,"10:06:08",1
"22/02/23","10:20",0.0,3.8,67.9,1021.3,292.8,3.7,6.4,284.5,0.29,-1.5,3.8,"10:13:30",1
"22/02/23","10:30",0.0,3.6,66.4,1021.8,280.9,4.1,6.6,326.6,0.20,-2.0,3.8,"10:26:38",1
"22/02/23","10:40",0.0,4.2,66.1,1021.3,297.1,4.1,7.3,335.1,0.37,-1.5,3.8,"10:39:58",1
"22/02/23","10:50",0.0,3.8,64.8,1020.8,295.9,4.4,7.8,332.2,0.21,-2.2,3.7,"10:43:48",1
"22/02/23","11:00",0.0,4.2,65.3,1021.1,290.1,3.7,6.2,311.5,0.23,-1.7,3.8,"10:56:32",1
"22/02/23","11:10",0.0,3.9,65.3,1020.8,294.8,4.7,7.2,264.8,0.17,-2.0,3.9,"11:02:18",1
"22/02/23","11:20",0.0,3.7,66.0,1020.6,303.5,4.9,8.7,303.0,0.13,-2.0,4.0,"11:17:52",1
"22/02/23","11:30",0.0,3.7,66.9,1020.6,308.5,4.5,10.3,343.5,0.12,-1.8,4.0,"11:21:06",1
"22/02/23","11:40",0.0,3.8,67.0,1020.4,303.8,4.6,7.4,331.3,0.12,-1.7,4.0,"11:37:04",1
"22/02/23","11:50",0.0,4.1,67.1,1020.6,286.5,5.6,9.8,330.8,0.25,-1.4,4.1,"11:45:52",1
"22/02/23","12:00",0.0,5.4,66.0,1020.8,304.8,4.5,8.2,334.3,0.50,-0.4,4.0,"11:54:48",1
"22/02/23","12:10",0.0,6.0,63.1,1020.4,288.0,4.1,7.1,325.7,0.60,-0.4,4.2,"12:00:44",1
"22/02/23","12:20",0.0,5.4,63.1,1020.1,308.2,5.0,7.7,321.2,0.39,-1.0,4.1,"12:10:24",1
"22/02/23","12:30",0.0,5.5,63.5,1020.4,345.2,3.0,5.8,12.7,0.26,-0.8,4.3,"12:29:02",1
"22/02/23","12:40",0.0,4.7,65.1,1020.1,347.5,3.2,6.4,348.2,0.14,-1.3,4.4,"12:30:40",1
"22/02/23","12:50",0.0,4.8,65.4,1020.1,347.8,2.8,5.9,329.8,0.20,-1.1,4.4,"12:40:56",1
"22/02/23","13:00",0.0,5.0,65.9,1020.1,335.5,3.1,6.8,326.2,0.17,-0.8,4.5,"12:55:30",1
"22/02/23","13:10",0.0,5.2,66.0,1019.9,333.8,3.7,5.9,296.2,0.21,-0.6,4.6,"13:05:28",1
"22/02/23","13:20",0.0,6.0,63.4,1019.7,335.5,3.4,6.6,347.5,0.54,-0.4,4.7,"13:13:32",1
"22/02/23","13:30",0.0,5.4,61.5,1019.4,351.8,3.2,6.4,349.0,0.20,-1.4,4.7,"13:24:28",1
"22/02/23","13:40",0.0,5.2,62.1,1019.2,335.2,3.9,6.8,339.6,0.23,-1.4,4.9,"13:30:34",1
"22/02/23","13:50",0.0,5.4,62.7,1019.0,330.2,3.7,7.4,315.6,0.20,-1.1,4.8,"13:42:10",1
"22/02/23","14:00",0.0,5.3,61.6,1019.4,327.0,2.6,5.2,322.3,0.13,-1.4,4.7,"13:55:40",1
"22/02/23","14:10",0.0,5.6,63.5,1019.0,329.2,3.7,7.1,318.8,0.20,-0.7,5.0,"14:00:52",1
"22/02/23","14:20",0.0,6.3,62.3,1019.2,317.8,4.1,7.1,317.0,0.49,-0.3,5.0,"14:17:34",1
"22/02/23","14:30",0.0,7.2,60.2,1019.0,303.4,3.6,5.6,328.3,0.54,0.0,4.9,"14:25:40",1
"22/02/23","14:40",0.0,6.1,59.9,1019.2,304.2,3.7,7.4,316.5,0.27,-1.1,5.1,"14:37:56",1
"22/02/23","14:50",0.0,6.3,60.4,1019.2,311.5,4.2,6.2,339.2,0.38,-0.8,5.0,"14:43:58",1
"22/02/23","15:00",0.0,6.6,62.6,1019.0,337.3,3.5,5.8,354.9,0.39,0.0,5.2,"14:58:30",1
"22/02/23","15:10",0.0,7.1,63.3,1019.2,340.2,2.5,4.4,345.2,0.41,0.6,5.4,"15:00:56",1
"22/02/23","15:20",0.0,6.2,62.8,1018.7,344.5,2.5,5.4,346.9,0.15,-0.3,5.3,"15:19:34",1
"22/02/23","15:30",0.0,5.9,61.1,1019.0,349.2,2.7,7.3,350.6,0.17,-1.0,5.3,"15:27:46",1
"22/02/23","15:40",0.0,5.8,60.9,1019.0,342.9,2.7,6.2,344.4,0.10,-1.1,5.5,"15:30:08",1
"22/02/23","15:50",0.0,5.7,61.1,1019.0,332.8,3.5,5.7,321.9,0.14,-1.2,5.6,"15:46:06",1
"22/02/23","16:00",0.0,5.6,61.7,1018.7,329.7,3.7,5.6,338.3,0.13,-1.1,5.6,"15:52:16",1
"22/02/23","16:10",0.0,5.5,61.8,1019.0,319.6,3.6,5.7,335.7,0.12,-1.2,5.7,"16:09:18",1
"22/02/23","16:20",0.0,5.3,61.3,1019.0,325.7,4.2,7.5,315.3,0.12,-1.5,5.7,"16:17:32",1
"22/02/23","16:30",0.0,5.4,63.0,1019.0,326.1,4.6,8.7,313.4,0.11,-1.0,5.8,"16:21:20",1
"22/02/23","16:40",0.0,4.9,62.8,1019.2,306.8,4.0,8.6,317.6,0.06,-1.5,5.7,"16:39:24",1
"22/02/23","16:50",0.0,4.8,63.2,1019.0,295.4,3.6,7.3,323.0,0.05,-1.6,5.8,"16:40:16",1
"22/02/23","17:00",0.0,4.7,64.2,1019.0,288.8,3.6,5.5,307.2,0.05,-1.4,5.8,"16:50:32",1
"22/02/23","17:10",0.0,4.8,64.9,1019.2,307.5,3.9,6.5,305.5,0.05,-1.2,5.7,"17:09:20",1
"22/02/23","17:20",0.0,4.7,65.1,1019.2,298.4,3.5,5.8,265.4,0.05,-1.3,5.7,"17:17:04",1
"22/02/23","17:30",0.0,4.7,64.9,1019.2,280.5,3.1,5.6,311.3,0.02,-1.3,5.9,"17:22:56",1
"22/02/23","17:40",0.0,4.4,65.9,1019.2,301.0,2.7,5.1,318.1,0.01,-1.4,5.9,"17:38:00",1
"22/02/23","17:50",0.0,4.0,66.8,1019.2,327.0,4.2,7.0,322.5,0.00,-1.6,5.8,"17:43:52",1
"22/02/23","18:00",0.0,3.9,68.0,1019.4,327.2,3.6,7.8,321.2,0.00,-1.4,5.7,"17:55:44",1
"22/02/23","18:10",0.0,3.7,68.5,1019.4,315.5,2.7,4.9,301.5,0.00,-1.5,5.9,"18:00:32",1
"22/02/23","18:20",0.0,3.3,69.4,1019.2,292.3,2.1,4.1,332.9,0.00,-1.7,5.9,"18:13:20",1
"22/02/23","18:30",0.0,3.1,69.9,1019.0,279.3,2.6,4.9,339.8,0.00,-1.8,5.8,"18:21:44",1
"22/02/23","18:40",0.0,2.8,70.6,1018.7,305.3,2.3,4.3,314.2,0.00,-2.0,5.9,"18:34:08",1
"22/02/23","18:50",0.0,2.6,71.5,1019.2,330.4,2.8,4.8,334.6,0.00,-2.0,5.8,"18:46:48",1
"22/02/23","19:00",0.0,2.6,72.2,1019.0,279.7,2.5,4.4,248.0,0.00,-1.9,5.7,"18:58:48",1
"22/02/23","19:10",0.0,2.4,73.1,1019.0,265.0,2.3,3.6,257.2,0.00,-1.9,5.7,"19:02:32",1
"22/02/23","19:20",0.0,2.2,73.9,1019.0,279.8,2.2,3.7,294.6,0.00,-1.9,5.7,"19:10:42",1
"22/02/23","19:30",0.0,1.8,74.5,1018.7,299.2,2.1,3.2,325.5,0.00,-2.2,5.7,"19:24:40",1
"22/02/23","19:40",0.0,1.4,75.5,1019.0,325.4,2.6,4.0,338.3,0.00,-2.4,5.8,"19:34:56",1
"22/02/23","19:50",0.0,1.3,76.5,1018.7,306.9,2.6,5.7,336.6,0.00,-2.3,5.7,"19:44:08",1
"22/02/23","20:00",0.0,1.1,77.4,1018.7,305.1,3.0,4.4,322.0,0.00,-2.4,5.8,"19:50:48",1
"22/02/23","20:10",0.0,0.9,78.4,1018.2,301.2,2.5,3.4,319.3,0.00,-2.4,5.4,"20:04:08",1
"22/02/23","20:20",0.0,0.6,79.7,1018.5,328.5,3.2,4.9,336.3,0.00,-2.5,5.6,"20:18:32",1
"22/02/23","20:30",0.0,0.7,80.6,1019.0,320.8,3.2,4.0,326.4,0.00,-2.2,5.5,"20:28:32",1
"22/02/23","20:40",0.0,0.8,81.4,1019.0,321.5,3.6,4.5,325.3,0.00,-2.0,5.5,"20:36:00",1
"22/02/23","20:50",0.0,0.9,82.0,1018.7,298.4,3.1,4.4,325.5,0.00,-1.8,5.6,"20:45:12",1
"22/02/23","21:00",0.0,0.7,82.8,1019.0,313.8,3.1,4.3,337.7,0.00,-1.8,5.5,"20:55:28",1
"22/02/23","21:10",0.0,0.8,83.8,1018.7,321.1,3.9,5.1,335.3,0.00,-1.6,5.4,"21:03:28",1
"22/02/23","21:20",0.0,0.9,84.4,1019.0,319.6,4.2,6.8,328.5,0.00,-1.4,5.3,"21:12:56",1
"22/02/23","21:30",0.0,0.9,84.9,1019.0,319.1,4.0,5.7,328.9,0.00,-1.3,5.5,"21:29:48",1
"22/02/23","21:40",0.0,0.8,85.4,1019.0,327.6,3.7,5.5,334.6,0.00,-1.3,5.3,"21:30:24",1
"22/02/23","21:50",0.0,0.8,85.8,1019.0,329.0,3.7,5.4,339.1,0.00,-1.3,5.2,"21:49:36",1
"22/02/23","22:00",0.0,0.8,86.2,1019.0,327.1,4.2,5.5,334.8,0.00,-1.2,5.2,"21:56:40",1
"22/02/23","22:10",0.0,0.8,86.5,1019.7,321.3,4.5,5.9,333.1,0.00,-1.2,5.2,"22:03:38",1
"22/02/23","22:20",0.0,0.8,86.9,1019.2,317.4,3.9,6.0,329.3,0.00,-1.1,5.1,"22:18:30",1
"22/02/23","22:30",0.0,0.7,87.2,1019.4,310.2,3.6,5.8,329.2,0.00,-1.1,4.9,"22:28:58",1
"22/02/23","22:40",0.0,0.7,87.4,1019.2,313.1,3.5,5.4,328.2,0.00,-1.1,5.2,"22:34:58",1
"22/02/23","22:50",0.0,0.7,87.7,1019.2,312.2,3.5,4.5,329.2,0.00,-1.1,5.1,"22:40:24",1
"22/02/23","23:00",0.0,0.5,87.8,1019.2,316.5,3.1,4.7,323.2,0.00,-1.2,5.1,"22:50:48",1
"22/02/23","23:10",0.0,0.3,88.2,1019.0,328.8,3.7,5.0,328.2,0.00,-1.4,5.1,"23:09:28",1
"22/02/23","23:20",0.0,0.5,88.5,1019.0,324.5,4.0,5.5,325.3,0.00,-1.1,5.0,"23:13:36",1
"22/02/23","23:30",0.0,0.4,88.6,1018.7,325.0,3.5,5.2,331.2,0.00,-1.2,5.0,"23:20:08",1
"22/02/23","23:40",0.0,0.0,88.8,1019.0,327.6,2.7,3.9,338.2,0.00,-1.6,4.9,"23:36:48",1
"22/02/23","23:50",0.0,-0.3,89.2,1018.7,330.5,2.2,3.1,336.9,0.00,-1.8,4.9,"23:40:56",1
"22/02/23","24:00",0.0,-0.6,89.6,1019.0,332.5,2.2,3.3,315.1,0.00,-2.1,5.0,"23:50:02",1
